Weather History for Drummond Island, MI

Change the Weather History Date:

Sunday, May 19, 2013

  Actual Average (KCIU) Record (KCIU)
Temperature  
Mean Temperature 60 °F -  
Max Temperature 68 °F 64 °F 84 °F (2012)
Min Temperature 52 °F 38 °F 26 °F (2002)
Degree Days  
Heating Degree Days 5    
Growing Degree Days 10 (Base 50)    
Moisture  
Dew Point 44 °F    
Average Humidity 60    
Maximum Humidity 75    
Minimum Humidity 47    
Precipitation  
Precipitation 0.00 in - - ()
Sea Level Pressure  
Sea Level Pressure 29.99 in    
Wind  
Wind Speed 6 mph (SE)    
Max Wind Speed 10 mph    
Max Gust Speed 21 mph    
Visibility 10 miles    
Events Rain    
Averages and records for this station are not official NWS values.
T = Trace of Precipitation, MM = Missing Value Source: NWS Daily Summary

Daily Weather History Graph

Daily Weather History Graph

Search for Another Location

Airport:

Trip Planner

Search our weather history database for the weather conditions in past years. The results will help you decide how hot, cold, wet, or windy it might be!

Date:

Astronomy

May. 19, 2013 Rise Set
Actual Time 5:58 AM EDT 9:05 PM EDT
Civil Twilight 5:22 AM EDT 9:41 PM EDT
Nautical Twilight 4:36 AM EDT 10:27 PM EDT
Astronomical Twilight 3:40 AM EDT 11:24 PM EDT
Moon 2:50 PM EDT (5/19) 2:41 AM EDT (5/19)
Length of Visible Light 16h 18m
Length of Day
15h 07m
Waxing Gibbous, 65% of the Moon is Illuminated
May 19
Waxing Gibbous
May 25
Full
May 31
Last Quarter
Jun 8
New
Jun 16
First Quarter

Hourly Weather History & Observations

Time (EDT) Temp. Dew Point Humidity Pressure Visibility Wind Dir Wind Speed Gust Speed Precip Events Conditions
12:15 AM 56.7 °F 41.2 °F 56% 30.08 in 10.0 mi ESE 5.8 mph - N/A   Overcast
12:36 AM 56.7 °F 42.3 °F 59% 30.07 in 10.0 mi SE 5.8 mph - N/A   Overcast
12:56 AM 56.7 °F 42.3 °F 59% 30.07 in 10.0 mi SE 6.9 mph - N/A   Overcast
1:15 AM 56.5 °F 42.4 °F 59% 30.06 in 10.0 mi SE 5.8 mph - N/A   Overcast
1:36 AM 56.3 °F 42.6 °F 60% 30.06 in 10.0 mi SE 9.2 mph - N/A   Overcast
1:56 AM 55.8 °F 42.8 °F 62% 30.05 in 10.0 mi SE 8.1 mph - N/A   Overcast
2:15 AM 55.9 °F 43.3 °F 63% 30.04 in 10.0 mi SE 6.9 mph - N/A   Overcast
2:36 AM 55.0 °F 43.3 °F 65% 30.05 in 10.0 mi SE 8.1 mph - N/A   Light Drizzle
2:55 AM 53.8 °F 44.1 °F 70% 30.04 in 10.0 mi SE 8.1 mph - N/A Rain Rain
3:16 AM 52.7 °F 44.4 °F 73% 30.04 in 10.0 mi SE 6.9 mph - N/A   Overcast
3:36 AM 52.7 °F 43.9 °F 72% 30.03 in 10.0 mi SE 6.9 mph - N/A   Overcast
3:55 AM 52.3 °F 43.3 °F 71% 30.04 in 10.0 mi SE 5.8 mph - N/A   Overcast
4:16 AM 52.3 °F 43.2 °F 71% 30.04 in 10.0 mi ESE 3.5 mph - N/A   Overcast
4:36 AM 52.9 °F 43.2 °F 70% 30.04 in 10.0 mi SE 4.6 mph - N/A Rain Light Rain
4:55 AM 53.8 °F 42.1 °F 65% 30.03 in 10.0 mi SE 9.2 mph - N/A   Overcast
5:16 AM 54.9 °F 40.6 °F 59% 30.03 in 10.0 mi SE 8.1 mph - N/A   Overcast
5:36 AM 55.4 °F 39.6 °F 55% 30.03 in 10.0 mi SE 8.1 mph - N/A   Overcast
5:55 AM 54.9 °F 39.7 °F 57% 30.02 in 10.0 mi SE 8.1 mph - N/A   Overcast
6:16 AM 55.0 °F 39.4 °F 56% 30.02 in 10.0 mi SE 9.2 mph - N/A   Overcast
6:35 AM 55.4 °F 39.2 °F 54% 30.02 in 10.0 mi SE 10.4 mph 18.4 mph N/A   Overcast
6:56 AM 55.4 °F 39.2 °F 54% 30.02 in 10.0 mi SSE 9.2 mph - N/A   Overcast
7:16 AM 55.6 °F 38.7 °F 53% 30.02 in 10.0 mi SE 8.1 mph 16.1 mph N/A   Overcast
7:35 AM 55.4 °F 39.6 °F 55% 30.03 in 10.0 mi ESE 6.9 mph - N/A   Overcast
8:15 AM 56.8 °F 40.6 °F 55% 30.02 in 10.0 mi SSE 9.2 mph 16.1 mph N/A   Overcast
8:35 AM 55.8 °F 41.0 °F 58% 30.01 in 10.0 mi SSE 9.2 mph - N/A Rain Light Rain
8:56 AM 54.7 °F 41.4 °F 61% 30.01 in 10.0 mi South 8.1 mph 20.7 mph N/A Rain Rain
9:15 AM 55.0 °F 41.5 °F 60% 30.01 in 10.0 mi SSE 10.4 mph - N/A   Mostly Cloudy
9:36 AM 54.7 °F 40.8 °F 60% 30.00 in 10.0 mi SSE 6.9 mph - N/A   Mostly Cloudy
9:56 AM 57.2 °F 42.3 °F 57% 30.00 in 10.0 mi SSE 9.2 mph - N/A   Scattered Clouds
10:15 AM 58.1 °F 41.9 °F 55% 30.01 in 10.0 mi SSE 8.1 mph - N/A   Scattered Clouds
10:56 AM 57.9 °F 41.9 °F 55% 30.00 in 10.0 mi SSE 9.2 mph - N/A   Scattered Clouds
11:15 AM 60.6 °F 43.5 °F 53% 30.00 in 10.0 mi ESE 9.2 mph - N/A   Mostly Cloudy
11:36 AM 59.4 °F 42.8 °F 54% 30.00 in 10.0 mi SE 8.1 mph - N/A   Overcast
11:56 AM 58.1 °F 42.3 °F 56% 30.00 in 10.0 mi SSE 9.2 mph - N/A   Mostly Cloudy
12:15 PM 59.0 °F 43.2 °F 56% 30.00 in 10.0 mi SE 5.8 mph - N/A   Scattered Clouds
12:36 PM 61.0 °F 43.7 °F 53% 29.99 in 10.0 mi SE 5.8 mph - N/A   Clear
12:55 PM 62.6 °F 44.6 °F 52% 29.98 in 10.0 mi SSE 6.9 mph - N/A   Clear
1:15 PM 63.9 °F 45.5 °F 51% 29.98 in 10.0 mi SE 5.8 mph - N/A   Clear
1:36 PM 65.5 °F 46.2 °F 50% 29.98 in 10.0 mi Calm Calm - N/A   Clear
1:55 PM 65.7 °F 46.2 °F 49% 29.98 in 10.0 mi South 4.6 mph - N/A   Clear
2:16 PM 67.1 °F 46.4 °F 47% 29.97 in 10.0 mi Calm Calm - N/A   Clear
2:36 PM 68.7 °F 48.4 °F 48% 29.96 in 10.0 mi South 3.5 mph - N/A   Clear
3:16 PM 68.0 °F 47.7 °F 48% 29.96 in 10.0 mi South 6.9 mph - N/A   Clear
3:36 PM 68.9 °F 48.4 °F 48% 29.96 in 10.0 mi SSE 6.9 mph - N/A   Clear
4:16 PM 66.9 °F 47.5 °F 50% 29.95 in 10.0 mi SSE 5.8 mph - N/A   Clear
4:36 PM 65.7 °F 46.8 °F 50% 29.94 in 10.0 mi SSE 8.1 mph - N/A   Clear
4:55 PM 64.4 °F 46.6 °F 52% 29.93 in 10.0 mi SSE 8.1 mph - N/A   Clear
5:16 PM 63.3 °F 46.6 °F 54% 29.93 in 10.0 mi SSE 6.9 mph - N/A   Clear
5:35 PM 62.1 °F 46.6 °F 57% 29.92 in 10.0 mi SE 6.9 mph - N/A   Clear
5:56 PM 61.5 °F 46.6 °F 58% 29.92 in 10.0 mi SSE 6.9 mph - N/A   Clear
6:16 PM 61.0 °F 46.9 °F 60% 29.91 in 10.0 mi SSE 8.1 mph - N/A   Clear
6:35 PM 61.2 °F 47.1 °F 60% 29.91 in 10.0 mi SE 5.8 mph - N/A   Clear
6:56 PM 59.9 °F 46.8 °F 62% 29.91 in 10.0 mi SSE 8.1 mph - N/A   Clear
7:16 PM 58.5 °F 46.4 °F 64% 29.90 in 10.0 mi SSE 6.9 mph - N/A   Clear
7:35 PM 58.3 °F 46.4 °F 65% 29.92 in 10.0 mi SSE 6.9 mph - N/A   Clear
7:56 PM 58.1 °F 46.8 °F 66% 29.93 in 10.0 mi SSE 3.5 mph - N/A   Clear
8:16 PM 57.2 °F 46.9 °F 69% 29.93 in 10.0 mi Calm Calm - N/A   Clear
8:35 PM 57.2 °F 47.3 °F 69% 29.93 in 10.0 mi SE 3.5 mph - N/A   Clear
8:56 PM 56.8 °F 47.1 °F 70% 29.94 in 10.0 mi Calm Calm - N/A   Clear
9:16 PM 55.9 °F 47.5 °F 73% 29.94 in 10.0 mi Calm Calm - N/A   Clear
9:35 PM 56.7 °F 47.5 °F 71% 29.95 in 10.0 mi ESE 3.5 mph - N/A   Mostly Cloudy
9:56 PM 56.8 °F 47.5 °F 71% 29.95 in 10.0 mi Calm Calm - N/A   Overcast
10:15 PM 57.4 °F 48.4 °F 72% 29.94 in 10.0 mi Calm Calm - N/A   Overcast
10:35 PM 56.8 °F 48.9 °F 75% 29.93 in 10.0 mi Calm Calm - N/A   Mostly Cloudy
10:56 PM 58.3 °F 49.1 °F 71% 29.93 in 10.0 mi Calm Calm - N/A   Mostly Cloudy
11:15 PM 59.9 °F 49.3 °F 68% 29.93 in 10.0 mi ESE 3.5 mph - N/A   Mostly Cloudy
11:36 PM 59.5 °F 50.2 °F 71% 29.93 in 10.0 mi Calm Calm - N/A   Overcast
11:56 PM 58.1 °F 50.4 °F 75% 29.93 in 10.0 mi Calm Calm - N/A   Overcast